Simultaneous Nadir Overpasses (SNOs) Predictions

Prediction of SNOs between FY3D and METOP-C Satellite Orbit:

Table of predicted SNOs for the next 14.0 days since TLE Epoch: 5/25/2024
Index Date (FY3D) Time (FY3D) Lat,Lon (FY3D) SZA (FY3D ) Date (METOP-C) Time (METOP-C) Lat,Lon (METOP-C) SZA (METOP-C ) Distance(km) Time Diff (sec)
1 06/03/2024 07:53:25 -76.40,-120.85 126.06 06/03/2024 07:54:30 -76.36,-117.14 126.10 97.08 65
2 06/03/2024 08:44:06 76.20, 47.19 53.74 06/03/2024 08:45:14 76.19, 49.57 53.73 63.16 68
3 06/03/2024 09:34:48 -76.05,-144.96 126.42 06/03/2024 09:35:59 -76.03,-143.66 126.45 34.94 71
4 06/03/2024 10:25:29 75.85, 23.05 53.37 06/03/2024 10:26:43 75.85, 23.08 53.37 0.65 74
5 06/03/2024 11:16:14 -75.84,-169.59 126.65 06/03/2024 11:17:25 -75.82,-169.68 126.66 2.68 71
6 06/03/2024 12:06:59 75.82, -2.21 53.33 06/03/2024 12:08:05 75.83, -2.32 53.34 3.45 66
7 06/03/2024 12:57:45 -75.85, 164.99 126.65 06/03/2024 12:58:46 -75.85, 165.08 126.64 2.47 61
8 06/03/2024 13:48:30 75.83, -27.63 53.33 06/03/2024 13:49:27 75.81, -27.72 53.32 3.01 57
9 06/03/2024 14:39:15 -75.82, 139.72 126.69 06/03/2024 14:40:08 -75.84, 139.68 126.67 2.45 53
10 06/03/2024 15:30:01 75.84, -53.05 53.34 06/03/2024 15:30:48 75.84, -52.97 53.34 2.27 47
11 06/03/2024 16:20:46 -75.83, 114.31 126.68 06/03/2024 16:21:30 -75.82, 114.28 126.69 1.37 44
12 06/03/2024 17:11:31 75.81, -78.31 53.30 06/03/2024 17:12:10 75.82, -78.36 53.31 2.23 39
13 06/03/2024 18:02:17 -75.84, 88.89 126.68 06/03/2024 18:02:51 -75.85, 89.04 126.67 4.13 34
14 06/03/2024 18:53:02 75.82,-103.73 53.30 06/03/2024 18:53:32 75.81,-103.76 53.29 1.85 30
15 06/03/2024 19:43:47 -75.81, 63.62 126.72 06/03/2024 19:44:13 -75.83, 63.64 126.70 2.34 26
16 06/03/2024 20:34:33 75.83,-129.15 53.31 06/03/2024 20:34:53 75.84,-129.01 53.31 3.90 20
17 06/03/2024 21:25:18 -75.82, 38.20 126.72 06/03/2024 21:25:35 -75.81, 38.24 126.72 1.47 17
18 06/03/2024 22:16:03 75.80,-154.42 53.26 06/03/2024 22:16:15 75.82,-154.41 53.28 1.83 12
19 06/03/2024 23:06:48 -75.79, 12.94 126.76 06/03/2024 23:06:57 -75.79, 12.84 126.75 2.69 9
20 06/03/2024 23:57:34 75.81,-179.84 53.27 06/03/2024 23:57:37 75.80,-179.81 53.25 1.79 3
21 06/04/2024 00:48:19 -75.80, -12.48 126.75 06/04/2024 00:48:18 -75.82, -12.40 126.73 3.24 1
22 06/04/2024 01:39:04 75.78, 154.90 53.23 06/04/2024 01:38:59 75.78, 154.80 53.23 2.85 5
23 06/04/2024 02:29:50 -75.81, -37.90 126.75 06/04/2024 02:29:40 -75.80, -37.80 126.76 2.84 10
24 06/04/2024 03:20:35 75.79, 129.48 53.23 06/04/2024 03:20:20 75.81, 129.55 53.25 2.64 15
25 06/04/2024 04:11:20 -75.78, -63.16 126.79 06/04/2024 04:11:02 -75.79, -63.20 126.78 1.24 18
26 06/04/2024 05:02:06 75.81, 104.06 53.24 06/04/2024 05:01:42 75.79, 104.15 53.22 2.90 24
27 06/04/2024 05:52:51 -75.79, -88.58 126.78 06/04/2024 05:52:24 -75.77, -88.59 126.81 2.58 27
28 06/04/2024 06:43:36 75.77, 78.80 53.20 06/04/2024 06:43:04 75.77, 78.75 53.20 1.21 32
29 06/04/2024 07:34:21 -75.76,-113.85 126.83 06/04/2024 07:33:46 -75.75,-113.99 126.83 4.07 35
30 06/04/2024 08:25:07 75.79, 53.38 53.20 06/04/2024 08:24:26 75.76, 53.35 53.17 3.35 41
31 06/04/2024 09:15:52 -75.77,-139.27 126.82 06/04/2024 09:15:07 -75.78,-139.24 126.81 1.19 45
32 06/04/2024 10:06:37 75.75, 28.11 53.16 06/04/2024 10:05:47 75.78, 28.11 53.19 3.58 50
33 06/04/2024 10:57:23 -75.78,-164.68 126.82 06/04/2024 10:56:29 -75.76,-164.64 126.84 2.77 54
34 06/04/2024 11:48:08 75.77, 2.69 53.16 06/04/2024 11:47:09 75.77, 2.71 53.17 0.47 59
35 06/04/2024 12:38:53 -75.75, 170.05 126.86 06/04/2024 12:37:51 -75.74, 169.97 126.86 2.42 62
36 06/04/2024 13:29:39 75.78, -22.73 53.17 06/04/2024 13:28:31 75.75, -22.69 53.14 3.43 68
37 06/04/2024 14:20:24 -75.76, 144.63 126.85 06/04/2024 14:19:12 -75.77, 144.72 126.84 2.62 72
38 06/04/2024 15:11:08 75.70, -47.84 53.08 06/04/2024 15:09:54 75.68, -48.24 53.07 11.11 74
39 06/04/2024 16:01:50 -75.55, 119.97 127.08 06/04/2024 16:00:38 -75.57, 118.73 127.05 34.57 72
40 06/04/2024 16:52:30 75.29, -71.92 52.67 06/04/2024 16:51:24 75.29, -74.80 52.67 81.51 66



Historial Predications of SNOs between FY3D and METOP-C
